GW3786 Weather Reports


time (UTC)temp
F
wind
direction
speed
knots
gust
knots
rain 1hr
in
rain 24hr
in
rain mn
in
humidity
%
barometer
mb
20260505101534 58 150 0.9 5.2 0.00 0.03 0.03 80 1006.0
20260505100033 59 147 0.9 3.5 0.00 0.03 0.03 79 1006.0
20260505094532 59 224 0.9 6.1 0.00 0.03 0.03 78 1005.7
20260505093031 60 253 1.7 7.0 0.00 0.03 0.03 76 1005.7
20260505091530 60 269 0.9 3.5 0.00 0.03 0.03 75 1005.7
20260505090028 60 193 0.9 7.0 0.00 0.03 0.03 75 1005.7
20260505084528 61 174 1.7 13.0 0.00 0.03 0.03 74 1005.6
20260505083028 61 210 1.7 9.6 0.00 0.03 0.03 75 1005.2
20260505081524 60 266 1.7 8.7 0.01 0.03 0.03 76 1004.9
20260505080024 60 271 2.6 10.4 0.03 0.03 0.03 78 1004.9
20260505074524 60 250 1.7 8.7 0.03 0.03 0.03 79 1004.5
20260505073024 60 88 1.7 8.7 0.03 0.03 0.03 78 1004.3
20260505072220 61 193 2.6 7.8 0.02 0.02 0.02 76 1004.2
20260505070024 63 195 2.6 8.7 0.00 0.00 0.00 71 1004.2
20260505064524 64 208 1.7 9.6 0.00 0.00 0.00 68 1004.1
20260505063024 64 210 1.7 7.0 0.00 0.00 0.00 68 1004.2
20260505061524 63 266 1.7 9.6 0.00 0.00 0.00 68 1004.1
20260505060024 63 143 1.7 7.0 0.00 0.00 0.00 69 1004.3
20260505054523 63 203 1.7 7.8 0.00 0.00 0.00 69 1004.4
20260505053721 63 72 0.9 9.6 0.00 0.00 0.00 69 1004.6
20260505051524 64 115 1.7 7.8 0.00 0.00 0.00 69 1004.9
20260505041524 64 127 1.7 7.8 0.00 0.00 0.00 69 1005.0
20260505040022 64 167 1.7 7.8 0.00 0.00 0.00 70 1005.1
20260505034522 63 134 0.9 6.1 0.00 0.00 0.00 72 1005.0
20260505033020 63 210 0.9 4.3 0.00 0.00 0.00 74 1005.0
20260505031521 63 128 0.0 3.5 0.00 0.00 0.00 74 1005.2
20260505030020 63 200 0.0 3.5 0.00 0.00 0.00 74 1005.1
20260505024519 63 215 0.9 4.3 0.00 0.00 0.00 74 1005.0
20260505023016 63 144 0.9 2.6 0.00 0.00 0.00 74 1005.1
20260505021516 62 73 0.9 1.7 0.00 0.00 0.00 74 1005.1
20260505020017 62 270 0.9 3.5 0.00 0.00 0.00 74 1005.0
20260505014516 62 211 0.0 0.9 0.00 0.00 0.00 72 1004.8
20260505013014 62 113 0.0 2.6 0.00 0.00 0.00 71 1004.9
20260505011512 62 307 0.0 1.7 0.00 0.00 0.00 71 1004.8
20260505010008 62 151 0.0 2.6 0.00 0.00 0.00 70 1004.9
20260505004506 63 207 0.0 1.7 0.00 0.00 0.00 69 1004.8
20260505003006 64 117 0.0 2.6 0.00 0.00 0.00 67 1004.6
20260505001506 65 260 0.0 3.5 0.00 0.00 0.00 65 1004.6
20260505000006 66 200 0.9 5.2 0.00 0.00 0.00 64 1004.5
20260504234506 66 76 0.9 4.3 0.00 0.00 0.00 64 1004.6
20260504232959 66 140 1.7 7.0 0.00 0.00 0.00 63 1004.6
20260504231500 67 168 1.7 8.7 0.00 0.00 0.00 61 1004.8
20260504225958 67 259 1.7 10.4 0.00 0.00 0.00 60 1004.9
20260504224458 69 54 0.9 5.2 0.00 0.00 0.00 58 1005.0
20260504222958 69 220 2.6 10.4 0.00 0.00 0.00 55 1004.8
20260504221458 70 272 3.5 14.8 0.00 0.00 0.00 54 1004.9
20260504215956 72 269 3.5 10.4 0.00 0.00 0.00 54 1004.8
20260504214455 71 250 3.5 10.4 0.00 0.00 0.00 54 1004.9
20260504212956 71 8 2.6 13.0 0.00 0.00 0.00 55 1004.9
20260504211455 71 269 3.5 15.6 0.00 0.00 0.00 56 1004.8
20260504205955 71 219 4.3 12.2 0.00 0.00 0.00 57 1005.4
20260504204455 72 254 4.3 18.2 0.00 0.00 0.00 55 1005.2
20260504203701 73 233 2.6 12.2 0.00 0.00 0.00 57 1005.3
20260504201455 72 82 3.5 13.9 0.00 0.00 0.00 57 1005.6
20260504195955 71 264 2.6 9.6 0.00 0.00 0.00 58 1005.7
20260504195155 72 156 2.6 9.6 0.00 0.00 0.00 57 1005.7
20260504192956 72 228 5.2 12.2 0.00 0.00 0.00 55 1005.8
20260504191455 72 68 2.6 10.4 0.00 0.00 0.00 58 1005.8
20260504185955 71 248 2.6 9.6 0.00 0.00 0.00 58 1005.8
20260504184455 71 217 2.6 9.6 0.00 0.00 0.00 59 1006.1
20260504182956 71 126 2.6 8.7 0.00 0.00 0.00 57 1006.1
20260504181456 70 111 2.6 8.7 0.00 0.00 0.00 58 1006.4
20260504175954 69 144 3.5 12.2 0.00 0.00 0.00 60 1006.4
20260504174453 68 284 2.6 7.8 0.00 0.00 0.00 61 1006.4
20260504172953 67 142 2.6 12.2 0.00 0.00 0.00 60 1006.5
20260504171453 67 161 2.6 9.6 0.00 0.00 0.00 61 1006.8
20260504150631 59 20 2.6 7.0 0.00 0.00 0.00 67 1007.9
20260504110630 49 207 1.7 5.2 0.00 0.00 0.00 72 1008.1